| time (UTC) | temp C | wind direction | speed KPH | gust KPH | rain 1hr cm | rain 24hr cm | rain mn cm | humidity % | barometer mb |
| 20260509064929 | 12 | 308 | 24.1 | 40.2 | 0.00 | 0.00 | 0.00 | 15 | 1013.2 |
| 20260509063928 | 12 | 309 | 24.1 | 35.4 | 0.00 | 0.00 | 0.00 | 15 | 1013.2 |
| 20260509062931 | 12 | 313 | 19.3 | 38.6 | 0.00 | 0.00 | 0.00 | 15 | 1013.2 |
| 20260509061427 | 12 | 307 | 24.1 | 38.6 | 0.00 | 0.00 | 0.00 | 15 | 1013.1 |
| 20260509060427 | 13 | 310 | 24.1 | 40.2 | 0.00 | 0.00 | 0.00 | 14 | 1013.2 |
| 20260509055427 | 13 | 310 | 22.5 | 37.0 | 0.00 | 0.00 | 0.00 | 13 | 1013.2 |
| 20260509054427 | 13 | 307 | 24.1 | 38.6 | 0.00 | 0.00 | 0.00 | 13 | 1013.2 |
| 20260509053427 | 13 | 310 | 24.1 | 37.0 | 0.00 | 0.00 | 0.00 | 12 | 1013.2 |
| 20260509052427 | 13 | 312 | 22.5 | 35.4 | 0.00 | 0.00 | 0.00 | 12 | 1013.2 |
| 20260509051427 | 13 | 313 | 24.1 | 40.2 | 0.00 | 0.00 | 0.00 | 12 | 1013.2 |
| 20260509050427 | 13 | 319 | 20.9 | 35.4 | 0.00 | 0.00 | 0.00 | 12 | 1013.2 |
| 20260509045540 | 13 | 312 | 25.7 | 37.0 | 0.00 | 0.00 | 0.00 | 12 | 1013.3 |
| 20260509045427 | 13 | 312 | 25.7 | 37.0 | 0.00 | 0.00 | 0.00 | 12 | 1013.3 |
| 20260509044429 | 13 | 319 | 22.5 | 37.0 | 0.00 | 0.00 | 0.00 | 12 | 1013.2 |
| 20260509043543 | 13 | 312 | 24.1 | 35.4 | 0.00 | 0.00 | 0.00 | 13 | 1013.2 |
| 20260509043430 | 13 | 312 | 24.1 | 35.4 | 0.00 | 0.00 | 0.00 | 13 | 1013.2 |
| 20260509042427 | 13 | 317 | 20.9 | 32.2 | 0.00 | 0.00 | 0.00 | 14 | 1013.1 |
| 20260509041544 | 13 | 320 | 24.1 | 35.4 | 0.00 | 0.00 | 0.00 | 14 | 1013.1 |
| 20260509041428 | 13 | 320 | 24.1 | 35.4 | 0.00 | 0.00 | 0.00 | 14 | 1013.1 |
| 20260509040527 | 13 | 318 | 24.1 | 35.4 | 0.00 | 0.00 | 0.00 | 14 | 1013.0 |
| 20260509040431 | 13 | 318 | 24.1 | 35.4 | 0.00 | 0.00 | 0.00 | 14 | 1013.0 |
| 20260509035519 | 13 | 320 | 20.9 | 33.8 | 0.00 | 0.00 | 0.00 | 14 | 1012.9 |
| 20260509035427 | 13 | 320 | 20.9 | 33.8 | 0.00 | 0.00 | 0.00 | 14 | 1012.9 |
| 20260509034528 | 13 | 323 | 22.5 | 35.4 | 0.00 | 0.00 | 0.00 | 14 | 1012.8 |
| 20260509034428 | 13 | 323 | 22.5 | 35.4 | 0.00 | 0.00 | 0.00 | 14 | 1012.8 |
| 20260509033518 | 13 | 314 | 25.7 | 37.0 | 0.00 | 0.00 | 0.00 | 14 | 1012.7 |
| 20260509033428 | 13 | 314 | 25.7 | 37.0 | 0.00 | 0.00 | 0.00 | 14 | 1012.7 |
| 20260509032427 | 13 | 312 | 22.5 | 33.8 | 0.00 | 0.00 | 0.00 | 13 | 1012.7 |
| 20260509031427 | 13 | 311 | 24.1 | 33.8 | 0.00 | 0.00 | 0.00 | 13 | 1012.7 |
| 20260509030526 | 13 | 311 | 22.5 | 38.6 | 0.00 | 0.00 | 0.00 | 12 | 1012.6 |
| 20260509030427 | 13 | 311 | 22.5 | 38.6 | 0.00 | 0.00 | 0.00 | 12 | 1012.6 |
| 20260509025522 | 13 | 310 | 24.1 | 35.4 | 0.00 | 0.00 | 0.00 | 12 | 1012.5 |
| 20260509025428 | 13 | 310 | 24.1 | 35.4 | 0.00 | 0.00 | 0.00 | 12 | 1012.5 |
| 20260509024516 | 13 | 314 | 20.9 | 37.0 | 0.00 | 0.00 | 0.00 | 12 | 1012.4 |
| 20260509024432 | 13 | 314 | 20.9 | 37.0 | 0.00 | 0.00 | 0.00 | 12 | 1012.4 |
| 20260509023603 | 13 | 312 | 20.9 | 33.8 | 0.00 | 0.00 | 0.00 | 12 | 1012.3 |
| 20260509023427 | 13 | 312 | 20.9 | 33.8 | 0.00 | 0.00 | 0.00 | 12 | 1012.3 |
| 20260509022510 | 13 | 306 | 22.5 | 35.4 | 0.00 | 0.00 | 0.00 | 12 | 1012.2 |
| 20260509022427 | 13 | 306 | 22.5 | 35.4 | 0.00 | 0.00 | 0.00 | 12 | 1012.2 |
| 20260509021547 | 13 | 310 | 20.9 | 35.4 | 0.00 | 0.00 | 0.00 | 12 | 1012.1 |
| 20260509021427 | 13 | 310 | 20.9 | 35.4 | 0.00 | 0.00 | 0.00 | 12 | 1012.1 |
| 20260509020427 | 13 | 309 | 22.5 | 38.6 | 0.00 | 0.00 | 0.00 | 12 | 1012.1 |
| 20260509015427 | 14 | 317 | 20.9 | 35.4 | 0.00 | 0.00 | 0.00 | 11 | 1012.0 |
| 20260509014427 | 14 | 300 | 24.1 | 41.8 | 0.00 | 0.00 | 0.00 | 11 | 1012.0 |
| 20260509013512 | 14 | 298 | 29.0 | 40.2 | 0.00 | 0.00 | 0.00 | 11 | 1011.9 |
| 20260509013427 | 14 | 298 | 29.0 | 40.2 | 0.00 | 0.00 | 0.00 | 11 | 1011.9 |
| 20260509012547 | 14 | 301 | 27.4 | 43.5 | 0.00 | 0.00 | 0.00 | 11 | 1011.9 |
| 20260509012427 | 14 | 301 | 27.4 | 43.5 | 0.00 | 0.00 | 0.00 | 11 | 1011.9 |
| 20260509011427 | 15 | 293 | 25.7 | 43.5 | 0.00 | 0.00 | 0.00 | 11 | 1011.9 |
| 20260509010515 | 15 | 298 | 24.1 | 43.5 | 0.00 | 0.00 | 0.00 | 10 | 1012.0 |
| 20260509010427 | 15 | 298 | 24.1 | 43.5 | 0.00 | 0.00 | 0.00 | 10 | 1012.0 |
| 20260509005516 | 15 | 304 | 24.1 | 41.8 | 0.00 | 0.00 | 0.00 | 10 | 1011.9 |
| 20260509005430 | 15 | 304 | 24.1 | 41.8 | 0.00 | 0.00 | 0.00 | 10 | 1011.9 |
| 20260509004427 | 15 | 298 | 20.9 | 32.2 | 0.00 | 0.00 | 0.00 | 9 | 1012.0 |
| 20260509003427 | 15 | 297 | 20.9 | 40.2 | 0.00 | 0.00 | 0.00 | 9 | 1012.0 |
| 20260509002427 | 15 | 284 | 25.7 | 40.2 | 0.00 | 0.00 | 0.00 | 9 | 1011.9 |
| 20260509001523 | 15 | 297 | 17.7 | 41.8 | 0.00 | 0.00 | 0.00 | 9 | 1012.0 |
| 20260509001427 | 15 | 297 | 17.7 | 41.8 | 0.00 | 0.00 | 0.00 | 9 | 1012.0 |
| 20260509000522 | 15 | 287 | 24.1 | 41.8 | 0.00 | 0.00 | 0.00 | 9 | 1012.1 |
| 20260509000427 | 15 | 287 | 24.1 | 41.8 | 0.00 | 0.00 | 0.00 | 9 | 1012.1 |
| 20260508235512 | 16 | 290 | 20.9 | 45.1 | 0.00 | 0.00 | 0.00 | 9 | 1011.9 |
| 20260508235430 | 16 | 290 | 20.9 | 45.1 | 0.00 | 0.00 | 0.00 | 9 | 1011.9 |
| 20260508234504 | 16 | 278 | 11.3 | 32.2 | 0.00 | 0.00 | 0.00 | 9 | 1012.2 |
| 20260508234428 | 16 | 278 | 11.3 | 32.2 | 0.00 | 0.00 | 0.00 | 9 | 1012.2 |
| 20260508233428 | 16 | 277 | 20.9 | 33.8 | 0.00 | 0.00 | 0.00 | 7 | 1012.4 |
| 20260508232512 | 16 | 280 | 20.9 | 35.4 | 0.00 | 0.00 | 0.00 | 7 | 1012.3 |
| 20260508232428 | 16 | 280 | 20.9 | 35.4 | 0.00 | 0.00 | 0.00 | 7 | 1012.3 |
| 20260508231427 | 16 | 273 | 17.7 | 32.2 | 0.00 | 0.00 | 0.00 | 9 | 1012.4 |
| 20260508230427 | 16 | 272 | 20.9 | 40.2 | 0.00 | 0.00 | 0.00 | 7 | 1012.3 |
| 20260508225538 | 16 | 281 | 17.7 | 45.1 | 0.00 | 0.00 | 0.00 | 8 | 1012.3 |
| 20260508225428 | 16 | 281 | 17.7 | 45.1 | 0.00 | 0.00 | 0.00 | 8 | 1012.3 |
| 20260508224550 | 16 | 299 | 12.9 | 35.4 | 0.00 | 0.00 | 0.00 | 9 | 1012.4 |
| 20260508224427 | 16 | 299 | 12.9 | 35.4 | 0.00 | 0.00 | 0.00 | 9 | 1012.4 |
| 20260508223430 | 16 | 289 | 17.7 | 43.5 | 0.00 | 0.00 | 0.00 | 9 | 1012.5 |
| 20260508222427 | 16 | 289 | 16.1 | 35.4 | 0.00 | 0.00 | 0.00 | 9 | 1012.4 |
| 20260508221431 | 16 | 297 | 17.7 | 38.6 | 0.00 | 0.00 | 0.00 | 8 | 1012.6 |
| 20260508220427 | 16 | 262 | 22.5 | 37.0 | 0.00 | 0.00 | 0.00 | 9 | 1012.6 |
| 20260508215430 | 16 | 243 | 9.7 | 30.6 | 0.00 | 0.00 | 0.00 | 10 | 1012.7 |
| 20260508214530 | 16 | 282 | 12.9 | 35.4 | 0.00 | 0.00 | 0.00 | 10 | 1012.8 |
| 20260508214427 | 16 | 282 | 12.9 | 35.4 | 0.00 | 0.00 | 0.00 | 10 | 1012.8 |
| 20260508213428 | 16 | 286 | 11.3 | 32.2 | 0.00 | 0.00 | 0.00 | 11 | 1013.0 |
| 20260508212427 | 16 | 285 | 17.7 | 32.2 | 0.00 | 0.00 | 0.00 | 10 | 1013.0 |
| 20260508211428 | 16 | 287 | 12.9 | 32.2 | 0.00 | 0.00 | 0.00 | 11 | 1013.0 |
| 20260508210427 | 15 | 266 | 25.7 | 37.0 | 0.00 | 0.00 | 0.00 | 10 | 1013.1 |
| 20260508205428 | 16 | 296 | 14.5 | 32.2 | 0.00 | 0.00 | 0.00 | 9 | 1013.2 |
| 20260508204500 | 16 | 280 | 11.3 | 30.6 | 0.00 | 0.00 | 0.00 | 13 | 1013.3 |
| 20260508204427 | 16 | 280 | 11.3 | 30.6 | 0.00 | 0.00 | 0.00 | 13 | 1013.3 |
| 20260508203427 | 16 | 273 | 9.7 | 25.7 | 0.00 | 0.00 | 0.00 | 11 | 1013.3 |
| 20260508202522 | 16 | 269 | 14.5 | 29.0 | 0.00 | 0.00 | 0.00 | 13 | 1013.4 |
| 20260508202427 | 16 | 269 | 14.5 | 29.0 | 0.00 | 0.00 | 0.00 | 13 | 1013.4 |
| 20260508201430 | 16 | 280 | 14.5 | 30.6 | 0.00 | 0.00 | 0.00 | 9 | 1013.4 |
| 20260508200427 | 16 | 294 | 17.7 | 33.8 | 0.00 | 0.00 | 0.00 | 10 | 1013.5 |
| 20260508195427 | 16 | 296 | 8.0 | 29.0 | 0.00 | 0.00 | 0.00 | 13 | 1013.6 |
| 20260508194505 | 15 | 289 | 11.3 | 25.7 | 0.00 | 0.00 | 0.00 | 11 | 1013.6 |
| 20260508194427 | 15 | 289 | 11.3 | 25.7 | 0.00 | 0.00 | 0.00 | 11 | 1013.6 |
| 20260508193427 | 15 | 304 | 11.3 | 20.9 | 0.00 | 0.00 | 0.00 | 13 | 1013.7 |
| 20260508192431 | 16 | 294 | 12.9 | 25.7 | 0.00 | 0.00 | 0.00 | 13 | 1013.7 |
| 20260508191427 | 16 | 318 | 6.4 | 17.7 | 0.00 | 0.00 | 0.00 | 13 | 1013.8 |
| 20260508190427 | 16 | 296 | 8.0 | 17.7 | 0.00 | 0.00 | 0.00 | 14 | 1013.8 |
| 20260508185428 | 16 | 283 | 6.4 | 14.5 | 0.00 | 0.00 | 0.00 | 16 | 1013.8 |
| 20260508184427 | 16 | 301 | 3.2 | 14.5 | 0.00 | 0.00 | 0.00 | 13 | 1014.0 |
| 20260508183427 | 16 | 249 | 1.6 | 16.1 | 0.00 | 0.00 | 0.00 | 11 | 1014.0 |
| 20260508181527 | 16 | 0 | 0.0 | 11.3 | 0.00 | 0.00 | 0.00 | 4 | 1014.1 |
| 20260508180527 | 15 | 17 | 6.4 | 20.9 | 0.00 | 0.00 | 0.00 | 4 | 1014.1 |
| 20260508175526 | 15 | 45 | 3.2 | 12.9 | 0.00 | 0.00 | 0.00 | 6 | 1014.1 |
| 20260508174526 | 15 | 101 | 4.8 | 12.9 | 0.00 | 0.00 | 0.00 | 8 | 1014.1 |
| 20260508173526 | 15 | 44 | 4.8 | 11.3 | 0.00 | 0.00 | 0.00 | 8 | 1014.1 |
| 20260508172526 | 15 | 79 | 3.2 | 12.9 | 0.00 | 0.00 | 0.00 | 11 | 1014.1 |
| 20260508171526 | 15 | 29 | 3.2 | 8.0 | 0.00 | 0.00 | 0.00 | 9 | 1014.1 |
| 20260508170527 | 14 | 98 | 3.2 | 9.7 | 0.00 | 0.00 | 0.00 | 9 | 1014.1 |
| 20260508165526 | 14 | 0 | 0.0 | 12.9 | 0.00 | 0.00 | 0.00 | 9 | 1014.0 |
| 20260508164526 | 14 | 24 | 4.8 | 14.5 | 0.00 | 0.00 | 0.00 | 7 | 1013.9 |
| 20260508163526 | 14 | 32 | 3.2 | 12.9 | 0.00 | 0.00 | 0.00 | 12 | 1013.9 |
| 20260508162528 | 13 | 26 | 4.8 | 16.1 | 0.00 | 0.00 | 0.00 | 9 | 1013.9 |
| 20260508161527 | 13 | 27 | 4.8 | 12.9 | 0.00 | 0.00 | 0.00 | 9 | 1013.8 |
| 20260508160528 | 13 | 7 | 3.2 | 9.7 | 0.00 | 0.00 | 0.00 | 10 | 1013.8 |
| 20260508155527 | 13 | 34 | 1.6 | 12.9 | 0.00 | 0.00 | 0.00 | 12 | 1013.8 |
| 20260508154527 | 12 | 49 | 3.2 | 12.9 | 0.00 | 0.00 | 0.00 | 11 | 1013.7 |
| 20260508153527 | 12 | 23 | 6.4 | 19.3 | 0.00 | 0.00 | 0.00 | 11 | 1013.7 |
| 20260508152526 | 12 | 29 | 4.8 | 24.1 | 0.00 | 0.00 | 0.00 | 13 | 1013.6 |
| 20260508151526 | 12 | 18 | 9.7 | 20.9 | 0.00 | 0.00 | 0.00 | 12 | 1013.5 |
| 20260508150527 | 11 | 1 | 9.7 | 24.1 | 0.00 | 0.00 | 0.00 | 12 | 1013.4 |
| 20260508145526 | 11 | 357 | 11.3 | 20.9 | 0.00 | 0.00 | 0.00 | 12 | 1013.5 |
| 20260508144526 | 11 | 360 | 11.3 | 27.4 | 0.00 | 0.00 | 0.00 | 12 | 1013.4 |
| 20260508143526 | 11 | 347 | 11.3 | 27.4 | 0.00 | 0.00 | 0.00 | 13 | 1013.3 |
| 20260508142526 | 11 | 336 | 9.7 | 24.1 | 0.00 | 0.00 | 0.00 | 11 | 1013.3 |
| 20260508141526 | 11 | 344 | 11.3 | 22.5 | 0.00 | 0.00 | 0.00 | 12 | 1013.2 |
| 20260508140526 | 11 | 342 | 12.9 | 27.4 | 0.00 | 0.00 | 0.00 | 11 | 1013.2 |
| 20260508135526 | 10 | 339 | 12.9 | 30.6 | 0.00 | 0.00 | 0.00 | 10 | 1013.0 |
| 20260508134526 | 10 | 338 | 14.5 | 30.6 | 0.00 | 0.00 | 0.00 | 9 | 1012.9 |
| 20260508133526 | 10 | 330 | 16.1 | 30.6 | 0.00 | 0.00 | 0.00 | 8 | 1012.9 |
| 20260508132526 | 10 | 335 | 16.1 | 27.4 | 0.00 | 0.00 | 0.00 | 8 | 1012.8 |
| 20260508131526 | 10 | 331 | 16.1 | 29.0 | 0.00 | 0.00 | 0.00 | 8 | 1012.8 |
| 20260508130531 | 10 | 329 | 17.7 | 32.2 | 0.00 | 0.00 | 0.00 | 8 | 1012.7 |
| 20260508125526 | 10 | 330 | 16.1 | 32.2 | 0.00 | 0.00 | 0.00 | 8 | 1012.6 |
| 20260508124526 | 10 | 328 | 20.9 | 32.2 | 0.00 | 0.00 | 0.00 | 9 | 1012.5 |
| 20260508123720 | 10 | 333 | 19.3 | 30.6 | 0.00 | 0.00 | 0.00 | 9 | 1012.5 |
| 20260508123526 | 10 | 333 | 19.3 | 30.6 | 0.00 | 0.00 | 0.00 | 9 | 1012.5 |
| 20260508122701 | 10 | 329 | 17.7 | 30.6 | 0.00 | 0.00 | 0.00 | 9 | 1012.4 |
| 20260508122526 | 10 | 329 | 17.7 | 30.6 | 0.00 | 0.00 | 0.00 | 9 | 1012.4 |
| 20260508121526 | 10 | 335 | 17.7 | 30.6 | 0.00 | 0.00 | 0.00 | 10 | 1012.4 |
| 20260508120527 | 10 | 330 | 16.1 | 29.0 | 0.00 | 0.00 | 0.00 | 10 | 1012.3 |
| 20260508115526 | 10 | 337 | 17.7 | 32.2 | 0.00 | 0.00 | 0.00 | 10 | 1012.3 |
| 20260508114526 | 10 | 332 | 16.1 | 30.6 | 0.00 | 0.00 | 0.00 | 12 | 1012.4 |
| 20260508113526 | 10 | 332 | 17.7 | 29.0 | 0.00 | 0.00 | 0.00 | 12 | 1012.4 |
| 20260508112526 | 10 | 335 | 16.1 | 25.7 | 0.00 | 0.00 | 0.00 | 13 | 1012.4 |
| 20260508111526 | 9 | 333 | 17.7 | 27.4 | 0.00 | 0.00 | 0.00 | 13 | 1012.4 |
| 20260508110526 | 9 | 334 | 16.1 | 27.4 | 0.00 | 0.00 | 0.00 | 15 | 1012.4 |
| 20260508105526 | 9 | 331 | 14.5 | 29.0 | 0.00 | 0.00 | 0.00 | 16 | 1012.5 |
| 20260508104526 | 9 | 336 | 14.5 | 29.0 | 0.00 | 0.00 | 0.00 | 17 | 1012.6 |
| 20260508103701 | 9 | 328 | 17.7 | 29.0 | 0.00 | 0.00 | 0.00 | 18 | 1012.6 |
| 20260508103526 | 9 | 328 | 17.7 | 29.0 | 0.00 | 0.00 | 0.00 | 18 | 1012.6 |
| 20260508102526 | 9 | 330 | 16.1 | 27.4 | 0.00 | 0.00 | 0.00 | 16 | 1012.5 |
| 20260508101526 | 9 | 328 | 16.1 | 27.4 | 0.00 | 0.00 | 0.00 | 17 | 1012.5 |
| 20260508100526 | 9 | 329 | 17.7 | 29.0 | 0.00 | 0.00 | 0.00 | 15 | 1012.4 |
| 20260508095526 | 9 | 326 | 16.1 | 29.0 | 0.00 | 0.00 | 0.00 | 13 | 1012.4 |
| 20260508094646 | 10 | 337 | 17.7 | 27.4 | 0.00 | 0.00 | 0.00 | 13 | 1012.4 |
| 20260508094526 | 10 | 337 | 17.7 | 27.4 | 0.00 | 0.00 | 0.00 | 13 | 1012.4 |
| 20260508093526 | 10 | 334 | 16.1 | 27.4 | 0.00 | 0.00 | 0.00 | 12 | 1012.4 |
| 20260508092526 | 10 | 328 | 16.1 | 25.7 | 0.00 | 0.00 | 0.00 | 13 | 1012.4 |
| 20260508091527 | 10 | 330 | 17.7 | 30.6 | 0.00 | 0.00 | 0.00 | 12 | 1012.4 |
| 20260508090526 | 10 | 330 | 16.1 | 29.0 | 0.00 | 0.00 | 0.00 | 10 | 1012.4 |
| 20260508085702 | 10 | 330 | 17.7 | 32.2 | 0.00 | 0.00 | 0.00 | 9 | 1012.5 |
| 20260508085526 | 10 | 330 | 17.7 | 32.2 | 0.00 | 0.00 | 0.00 | 9 | 1012.5 |
| 20260508084526 | 10 | 328 | 19.3 | 27.4 | 0.00 | 0.00 | 0.00 | 9 | 1012.6 |
| 20260508083529 | 10 | 329 | 19.3 | 27.4 | 0.00 | 0.00 | 0.00 | 9 | 1012.6 |
| 20260508082017 | 10 | 330 | 14.5 | 27.4 | 0.00 | 0.00 | 0.00 | 9 | 1012.7 |
| 20260508081929 | 10 | 330 | 14.5 | 27.4 | 0.00 | 0.00 | 0.00 | 9 | 1012.7 |
| 20260508080929 | 10 | 328 | 19.3 | 30.6 | 0.00 | 0.00 | 0.00 | 9 | 1012.8 |
| 20260508080015 | 10 | 314 | 17.7 | 29.0 | 0.00 | 0.00 | 0.00 | 9 | 1012.9 |
| 20260508075929 | 10 | 314 | 17.7 | 29.0 | 0.00 | 0.00 | 0.00 | 9 | 1012.9 |
| 20260508074928 | 10 | 320 | 19.3 | 32.2 | 0.00 | 0.00 | 0.00 | 9 | 1013.0 |
| 20260508074000 | 10 | 321 | 17.7 | 27.4 | 0.00 | 0.00 | 0.00 | 9 | 1013.0 |
| 20260508073928 | 10 | 321 | 17.7 | 27.4 | 0.00 | 0.00 | 0.00 | 9 | 1013.0 |
| 20260508072931 | 10 | 319 | 19.3 | 32.2 | 0.00 | 0.00 | 0.00 | 9 | 1013.1 |
| 20260508071316 | 10 | 318 | 19.3 | 33.8 | 0.00 | 0.00 | 0.00 | 9 | 1013.0 |
| 20260508071228 | 10 | 318 | 19.3 | 33.8 | 0.00 | 0.00 | 0.00 | 9 | 1013.0 |
| 20260508070229 | 10 | 332 | 19.3 | 30.6 | 0.00 | 0.00 | 0.00 | 10 | 1013.2 |
| 20260508065227 | 10 | 324 | 17.7 | 33.8 | 0.00 | 0.00 | 0.00 | 9 | 1013.2 |